Simultaneous Nadir Overpasses (SNOs) Predictions

Prediction of SNOs between NOAA-15 and METOP-C Satellite Orbit:

Table of predicted SNOs for the next 14.0 days since TLE Epoch: 1/7/2023
Index Date (NOAA-15) Time (NOAA-15) Lat,Lon (NOAA-15) SZA (NOAA-15 ) Date (METOP-C) Time (METOP-C) Lat,Lon (METOP-C) SZA (METOP-C ) Distance(km) Time Diff (sec)
1 01/10/2023 12:09:04 -81.07,-143.75 75.34 01/10/2023 12:07:53 -81.07,-143.61 75.36 2.51 71
2 01/10/2023 12:59:32 81.06, 23.88 104.67 01/10/2023 12:58:34 81.08, 23.99 104.67 2.45 58
3 01/10/2023 13:50:05 -81.07,-168.83 75.34 01/10/2023 13:49:14 -81.07,-168.74 75.35 1.79 51
4 01/10/2023 14:40:34 81.07, -1.58 104.65 01/10/2023 14:39:56 81.07, -1.52 104.64 1.14 38
5 01/10/2023 15:31:07 -81.07, 165.71 75.36 01/10/2023 15:30:36 -81.07, 165.75 75.38 1.07 31
6 01/10/2023 16:21:35 81.06, -26.67 104.65 01/10/2023 16:21:17 81.08, -26.65 104.65 1.52 18
7 01/10/2023 17:12:08 -81.07, 140.62 75.37 01/10/2023 17:11:57 -81.07, 140.62 75.37 0.89 11
8 01/10/2023 18:02:37 81.07, -52.14 104.63 01/10/2023 18:02:39 81.07, -52.16 104.62 0.49 2
9 01/10/2023 18:53:10 -81.08, 115.17 75.39 01/10/2023 18:53:19 -81.07, 115.11 75.40 1.26 9
10 01/10/2023 19:43:38 81.07, -77.23 104.62 01/10/2023 19:44:00 81.08, -77.30 104.64 1.84 22
11 01/10/2023 20:34:11 -81.07, 90.08 75.39 01/10/2023 20:34:40 -81.08, 89.98 75.38 2.00 29
12 01/10/2023 21:24:40 81.08,-102.69 104.60 01/10/2023 21:25:22 81.07,-102.80 104.60 1.98 42
13 01/10/2023 22:15:13 -81.08, 64.62 75.41 01/10/2023 22:16:02 -81.07, 64.47 75.41 2.77 49
14 01/10/2023 23:05:41 81.07,-127.78 104.60 01/10/2023 23:06:43 81.08,-127.94 104.62 3.03 62



Historial Predications of SNOs between NOAA-15 and METOP-C
